Weather History for Boonville, MO

Change the Weather History Date:

Tuesday, May 14, 2013

  Actual Average Record
Temperature  
Mean Temperature 73 °F -  
Max Temperature 90 °F 73 °F 90 °F (2013)
Min Temperature 56 °F 52 °F 40 °F (1953)
Cooling Degree Days 8    
Growing Degree Days 23 (Base 50)    
Moisture  
Dew Point 51 °F    
Average Humidity 48    
Maximum Humidity 85    
Minimum Humidity 24    
Precipitation  
Precipitation 0.00 in - - ()
Sea Level Pressure  
Sea Level Pressure 29.88 in    
Wind  
Wind Speed 8 mph (SSW)    
Max Wind Speed 17 mph    
Max Gust Speed 26 mph    
Visibility 10 miles    
Events      
Averages and records for this station are not official NWS values.
T = Trace of Precipitation, MM = Missing Value Source: NWS Daily Summary

Daily Weather History Graph

Daily Weather History Graph

Search for Another Location

Airport:

Trip Planner

Search our weather history database for the weather conditions in past years. The results will help you decide how hot, cold, wet, or windy it might be!

Date:

Astronomy

May. 14, 2013 Rise Set
Actual Time 5:58 AM CDT 8:15 PM CDT
Civil Twilight 5:28 AM CDT 8:45 PM CDT
Nautical Twilight 4:51 AM CDT 9:22 PM CDT
Astronomical Twilight 4:11 AM CDT 10:03 PM CDT
Moon 9:38 AM CDT (5/14) No Moon Set
Length of Visible Light 15h 17m
Length of Day
14h 17m
Waxing Crescent, 19% of the Moon is Illuminated
May 14
Waxing Crescent
May 17
First Quarter
May 24
Full
May 31
Last Quarter
Jun 8
New

Hourly Weather History & Observations

Time (CDT) Temp. Heat Index Dew Point Humidity Pressure Visibility Wind Dir Wind Speed Gust Speed Precip Events Conditions
12:15 AM 59.2 °F - 50.2 °F 72% 29.96 in 10.0 mi SSE 5.8 mph - N/A   Clear
12:35 AM 58.3 °F - 50.4 °F 75% 29.95 in 10.0 mi SSE 4.6 mph - N/A   Clear
12:55 AM 57.6 °F - 50.5 °F 77% 29.95 in 10.0 mi SSE 4.6 mph - N/A   Clear
1:15 AM 57.4 °F - 50.4 °F 77% 29.94 in 10.0 mi SSE 5.8 mph - N/A   Clear
1:35 AM 57.2 °F - 50.5 °F 78% 29.93 in 10.0 mi SSE 4.6 mph - N/A   Clear
1:55 AM 57.9 °F - 50.9 °F 77% 29.93 in 10.0 mi SSE 4.6 mph - N/A   Clear
2:15 AM 57.4 °F - 50.9 °F 79% 29.92 in 10.0 mi SSE 5.8 mph - N/A   Clear
2:35 AM 57.0 °F - 51.1 °F 81% 29.92 in 10.0 mi SSE 5.8 mph - N/A   Clear
2:55 AM 57.2 °F - 51.4 °F 81% 29.91 in 10.0 mi SSE 6.9 mph - N/A   Clear
3:15 AM 56.8 °F - 51.8 °F 83% 29.90 in 10.0 mi SSE 6.9 mph - N/A   Clear
3:35 AM 57.4 °F - 52.0 °F 82% 29.90 in 10.0 mi South 6.9 mph - N/A   Clear
3:55 AM 57.7 °F - 52.0 °F 81% 29.90 in 10.0 mi South 5.8 mph - N/A   Clear
4:15 AM 57.4 °F - 51.8 °F 82% 29.89 in 10.0 mi South 5.8 mph - N/A   Clear
4:35 AM 58.1 °F - 52.2 °F 81% 29.89 in 10.0 mi South 4.6 mph - N/A   Clear
4:55 AM 58.1 °F - 52.2 °F 81% 29.89 in 10.0 mi SSE 4.6 mph - N/A   Clear
5:15 AM 57.0 °F - 52.2 °F 84% 29.88 in 10.0 mi SSE 5.8 mph - N/A   Clear
5:35 AM 56.7 °F - 52.2 °F 85% 29.88 in 10.0 mi SSE 5.8 mph - N/A   Clear
5:55 AM 56.8 °F - 52.5 °F 85% 29.88 in 10.0 mi SSE 5.8 mph - N/A   Clear
6:15 AM 57.6 °F - 52.7 °F 84% 29.88 in 10.0 mi South 4.6 mph - N/A   Clear
6:35 AM 59.5 °F - 52.7 °F 78% 29.89 in 10.0 mi South 4.6 mph - N/A   Clear
6:55 AM 63.1 °F - 52.7 °F 69% 29.88 in 10.0 mi South 5.8 mph - N/A   Clear
7:15 AM 66.2 °F - 52.7 °F 62% 29.89 in 10.0 mi SW 4.6 mph - N/A   Clear
7:35 AM 68.5 °F - 52.3 °F 56% 29.89 in 10.0 mi SW 4.6 mph - N/A   Clear
7:55 AM 70.2 °F - 52.0 °F 52% 29.89 in 10.0 mi SW 5.8 mph - N/A   Clear
8:15 AM 71.8 °F - 51.6 °F 49% 29.89 in 10.0 mi WSW 6.9 mph - N/A   Clear
8:35 AM 72.9 °F - 50.9 °F 46% 29.89 in 10.0 mi WSW 11.5 mph 16.1 mph N/A   Clear
8:55 AM 73.9 °F - 50.4 °F 43% 29.89 in 10.0 mi SW 9.2 mph 16.1 mph N/A   Clear
9:15 AM 75.2 °F - 49.8 °F 41% 29.89 in 10.0 mi WSW 12.7 mph 18.4 mph N/A   Clear
9:35 AM 76.3 °F - 49.3 °F 39% 29.89 in 10.0 mi WSW 8.1 mph 16.1 mph N/A   Clear
9:55 AM 77.0 °F - 49.3 °F 38% 29.89 in 10.0 mi SW 8.1 mph 18.4 mph N/A   Clear
10:15 AM 78.4 °F - 49.6 °F 36% 29.89 in 10.0 mi SW 11.5 mph 19.6 mph N/A   Clear
10:35 AM 79.3 °F - 49.6 °F 35% 29.89 in 10.0 mi WSW 9.2 mph 16.1 mph N/A   Clear
10:55 AM 80.2 °F - 49.5 °F 34% 29.90 in 10.0 mi WSW 12.7 mph 18.4 mph N/A   Clear
11:15 AM 81.1 °F - 49.8 °F 33% 29.90 in 10.0 mi SW 12.7 mph 17.3 mph N/A   Clear
11:35 AM 82.0 °F - 49.1 °F 32% 29.90 in 10.0 mi WSW 10.4 mph 18.4 mph N/A   Clear
11:55 AM 82.8 °F - 50.7 °F 33% 29.90 in 10.0 mi SW 11.5 mph - N/A   Clear
12:15 PM 83.3 °F - 50.5 °F 32% 29.89 in 10.0 mi WSW 9.2 mph 18.4 mph N/A   Clear
12:35 PM 83.8 °F - 50.4 °F 31% 29.89 in 10.0 mi WSW 11.5 mph 20.7 mph N/A   Clear
12:55 PM 84.4 °F - 50.0 °F 30% 29.88 in 10.0 mi SW 12.7 mph 19.6 mph N/A   Clear
1:15 PM 84.9 °F - 49.5 °F 29% 29.88 in 10.0 mi SW 15.0 mph 19.6 mph N/A   Clear
1:35 PM 85.8 °F - 49.8 °F 29% 29.88 in 10.0 mi SW 11.5 mph 17.3 mph N/A   Clear
1:55 PM 86.2 °F - 50.2 °F 29% 29.87 in 10.0 mi WSW 9.2 mph 19.6 mph N/A   Clear
2:15 PM 86.9 °F - 50.2 °F 28% 29.87 in 10.0 mi SW 13.8 mph 23.0 mph N/A   Clear
2:35 PM 87.4 °F - 49.8 °F 27% 29.86 in 10.0 mi SW 11.5 mph 21.9 mph N/A   Clear
2:55 PM 88.0 °F - 50.0 °F 27% 29.85 in 10.0 mi SW 12.7 mph 20.7 mph N/A   Clear
3:15 PM 88.9 °F - 50.7 °F 27% 29.85 in 10.0 mi SW 12.7 mph 18.4 mph N/A   Clear
3:35 PM 89.2 °F - 50.4 °F 26% 29.85 in 10.0 mi SW 13.8 mph 18.4 mph N/A   Clear
3:55 PM 89.8 °F - 50.0 °F 25% 29.84 in 10.0 mi SW 16.1 mph 26.5 mph N/A   Clear
4:15 PM 90.0 °F - 48.9 °F 24% 29.83 in 10.0 mi SW 17.3 mph 26.5 mph N/A   Clear
4:35 PM 90.5 °F - 49.3 °F 24% 29.83 in 10.0 mi SW 15.0 mph 24.2 mph N/A   Clear
4:55 PM 90.3 °F - 50.0 °F 25% 29.83 in 10.0 mi SW 9.2 mph 26.5 mph N/A   Clear
5:15 PM 90.1 °F - 50.0 °F 25% 29.83 in 10.0 mi SW 10.4 mph 25.3 mph N/A   Clear
5:35 PM 89.6 °F - 50.5 °F 26% 29.83 in 10.0 mi WSW 8.1 mph 18.4 mph N/A   Clear
5:55 PM 89.4 °F - 50.0 °F 26% 29.82 in 10.0 mi SW 12.7 mph 18.4 mph N/A   Clear
6:15 PM 88.9 °F - 49.6 °F 26% 29.82 in 10.0 mi SW 12.7 mph 21.9 mph N/A   Clear
6:35 PM 88.2 °F - 49.8 °F 27% 29.82 in 10.0 mi SW 13.8 mph 23.0 mph N/A   Clear
6:55 PM 87.6 °F - 49.5 °F 27% 29.82 in 10.0 mi SW 10.4 mph 16.1 mph N/A   Clear
7:15 PM 86.5 °F - 50.2 °F 28% 29.82 in 10.0 mi SW 8.1 mph 21.9 mph N/A   Clear
7:35 PM 85.6 °F - 50.5 °F 30% 29.82 in 10.0 mi SW 8.1 mph 16.1 mph N/A   Clear
7:55 PM 84.2 °F - 50.9 °F 32% 29.82 in 10.0 mi SSW 5.8 mph - N/A   Clear
8:15 PM 82.6 °F - 52.0 °F 35% 29.82 in 10.0 mi SSW 8.1 mph - N/A   Clear
8:35 PM 81.5 °F 80.8 °F 53.4 °F 38% 29.83 in 10.0 mi SSW 8.1 mph - N/A   Clear
8:55 PM 81.5 °F - 52.5 °F 37% 29.83 in 10.0 mi SSW 9.2 mph - N/A   Clear
9:15 PM 81.1 °F - 51.3 °F 35% 29.84 in 10.0 mi SW 8.1 mph - N/A   Clear
9:35 PM 80.1 °F - 50.9 °F 36% 29.85 in 10.0 mi SW 9.2 mph - N/A   Clear
9:55 PM 79.0 °F - 51.3 °F 38% 29.86 in 10.0 mi SSW 5.8 mph - N/A   Clear
10:15 PM 77.5 °F - 51.8 °F 41% 29.86 in 10.0 mi South 4.6 mph - N/A   Clear
10:35 PM 76.8 °F - 51.4 °F 41% 29.87 in 10.0 mi SSW 8.1 mph - N/A   Clear
11:15 PM 76.3 °F - 50.4 °F 40% 29.87 in 10.0 mi SSW 6.9 mph - N/A   Clear
11:35 PM 76.1 °F - 49.8 °F 40% 29.87 in 10.0 mi SSW 6.9 mph - N/A   Clear
11:55 PM 76.1 °F - 49.3 °F 39% 29.88 in 10.0 mi SSW 8.1 mph - N/A   Clear